Location: Montreal
(45.5000°N, 73.5833°W)
Time: 02:16:10
(UTC-04:00)

Vanguard 1 - All Passes

Search period start: 19 July 2018 00:00
Search period end: 29 July 2018 00:00
Orbit: 650 x 3833 km, 34.2° (Epoch: 18 July)

Date Brightness Start Highest point End Pass type
(mag) Time Alt. Az. Time Alt. Az. Time Alt. Az.
19 Jul - 01:27:43 10° SW 01:31:08 21° S 01:34:33 10° SE visible
19 Jul - 03:47:21 10° SW 03:50:26 17° S 03:54:07 10° SSE visible
19 Jul - 23:29:12 10° SSW 23:32:32 16° SSE 23:35:24 10° SE visible
20 Jul - 01:48:24 10° SW 01:51:49 21° S 01:55:18 10° SE visible
20 Jul - 04:08:44 10° SW 04:11:11 14° SSW 04:13:59 10° SSE visible
20 Jul - 23:49:24 10° SW 23:53:16 19° S 23:56:32 10° SE visible
21 Jul - 02:09:14 10° SW 02:12:31 20° S 02:15:53 10° SE visible
21 Jul - 21:50:57 10° SSW 21:54:18 14° SSE 21:57:05 10° SE visible
22 Jul - 00:09:54 10° SW 00:13:59 21° S 00:17:26 10° SE visible
22 Jul - 02:30:15 10° SW 02:33:12 17° SSW 02:36:17 10° SSE visible
22 Jul - 22:10:30 10° SSW 22:15:07 18° SSE 22:18:41 10° SE visible
23 Jul - 00:30:35 10° SW 00:34:41 22° S 00:38:12 10° SE visible
23 Jul - 02:51:32 10° SW 02:53:52 14° SSW 02:56:19 10° SSE visible
23 Jul - 20:13:34 10° S 20:15:36 11° SSE 20:17:27 10° SE daylight
23 Jul - 22:30:37 10° SW 22:35:55 21° S 22:39:51 10° ESE visible
24 Jul - 00:51:24 10° WSW 00:55:22 22° S 00:58:50 10° SE visible
24 Jul - 03:13:48 10° SSW 03:14:31 10° SSW 03:15:16 10° S visible
24 Jul - 20:31:25 10° SSW 20:36:32 15° SSE 20:40:28 10° SE daylight
24 Jul - 22:51:05 10° SW 22:56:42 24° S 23:00:48 10° ESE visible
25 Jul - 01:12:21 10° WSW 01:16:02 20° SSW 01:19:19 10° SE night (unlit)
25 Jul - 20:50:50 10° SSW 20:57:26 20° SSE 21:02:07 10° ESE daylight
25 Jul - 23:11:46 10° SW 23:17:28 26° S 23:21:36 10° ESE visible
26 Jul - 01:33:30 10° WSW 01:36:40 17° SSW 01:39:35 10° SSE night (unlit)
26 Jul - 18:53:26 10° S 18:57:21 12° SSE 19:00:40 10° SE daylight
26 Jul - 21:10:51 10° SW 21:18:18 24° S 21:23:20 10° ESE visible
26 Jul - 23:32:36 10° WSW 23:38:11 27° S 23:42:17 10° SE visible
27 Jul - 01:55:00 10° SW 01:57:16 13° SSW 01:59:25 10° S night (unlit)
27 Jul - 19:11:11 10° SSW 19:18:20 17° SSE 19:23:37 10° ESE daylight
27 Jul - 21:31:15 10° SW 21:39:10 28° S 21:44:19 10° ESE visible
27 Jul - 23:53:33 10° WSW 23:58:53 26° SSW 00:02:51 10° SE visible
28 Jul - 19:30:21 10° SSW 19:39:18 22° SSE 19:45:24 10° ESE daylight
28 Jul - 21:51:55 10° SW 21:59:59 31° S 22:05:09 10° ESE visible
